Flag Weather past 2 weeks in Pamplona, Spain

Now
54 °F

Passing clouds.


Feels Like: 48 °F
Forecast: 50 / 56 °F
Wind: 21 mph from Southeast

Location: Pamplona / Noain

Current Time: Nov 27, 2014 at 8:31:18 PM

Latest Report: Nov 27, 2014 at 8:00 PM


Visibility: N/A

Pressure: 29.42 "Hg

Humidity: 82%

Dew point: 48 °F

Location of PamplonaLocation

Historic Weather in Pamplona — Graph

°F

Pamplona temperature yesterday

Maximum temperature yesterday: 57 °F (at 2:30 PM)
Minimum temperature yesterday: 48 °F (at 6:30 AM)
Average temperature yesterday: 52 °F

Past Weeks' High & Low Weather Summary

 TemperatureHumidityPressure
High68 °F (Nov 23, 12:00 PM)100% (Nov 14, 5:30 AM)30.15 "Hg (Nov 14, 5:30 AM)
Low37 °F (Nov 18, 5:30 AM)40% (Nov 23, 12:00 PM)29.42 "Hg (Nov 27, 6:00 PM)
Average52 °F83%29.90 "Hg
* Reported Nov 12 7:00 PM — Nov 27 7:30 PM, Pamplona, Weather by CustomWeather, © 2014

Note: Actual official high and low records may vary slightly from our data, if they occured in-between our weather recording intervals... More about our weather records

Advertising

Pamplona weather history for previous 24 hours

 ConditionsComfort  
Time TempWeatherWind HumidityBarometerVisibility
7:30 PM
Nov 27
55 °FPassing clouds.23 mph72%29.42 "HgN/A
7:00 PM55 °FPassing clouds.24 mph72%29.42 "HgN/A
6:30 PM55 °FPassing clouds.25 mph72%29.42 "HgN/A
6:00 PM55 °FPassing clouds.23 mph72%29.42 "HgN/A
5:30 PM55 °FScattered clouds.20 mph72%29.45 "HgN/A
5:00 PM57 °FBroken clouds.16 mph67%29.45 "HgN/A
4:30 PM57 °FBroken clouds.16 mph67%29.47 "HgN/A
4:00 PM57 °FPartly sunny.13 mph63%29.47 "HgN/A
3:30 PM57 °FPartly sunny.15 mph67%29.50 "HgN/A
3:00 PM55 °FScattered clouds.21 mph72%29.50 "HgN/A
2:30 PM57 °FScattered clouds.15 mph67%29.53 "HgN/A
2:00 PM59 °FScattered clouds.21 mph63%29.53 "HgN/A
1:30 PM57 °FScattered clouds.18 mph67%29.56 "HgN/A
1:00 PM55 °FScattered clouds.15 mph72%29.59 "HgN/A
12:30 PM55 °FScattered clouds.15 mph72%29.62 "HgN/A
12:00 PM57 °FScattered clouds.17 mph67%29.62 "HgN/A
11:30 AM55 °FScattered clouds.12 mph77%29.65 "HgN/A
11:00 AM55 °FScattered clouds.14 mph77%29.65 "HgN/A
10:30 AM54 °FPartly sunny.16 mph82%29.65 "HgN/A
10:00 AM52 °FPartly sunny.14 mph88%29.68 "HgN/A
9:30 AM52 °FBroken clouds.7 mph88%29.68 "HgN/A
9:00 AM50 °FPartly sunny.10 mph88%29.68 "HgN/A
8:30 AM50 °FBroken clouds.2 mph82%29.68 "HgN/A
8:00 AM48 °FPartly cloudy.6 mph87%29.68 "HgN/A
7:30 AM50 °FOvercast.6 mph88%29.68 "HgN/A
7:00 AM50 °FPassing clouds.9 mph88%29.68 "HgN/A
6:30 AM48 °FPassing clouds.9 mph94%29.71 "HgN/A
6:00 AM48 °FPassing clouds.1 mph94%29.71 "HgN/A
5:30 AM50 °FPartly cloudy.1 mph88%29.71 "HgN/A
12:00 AM48 °FPassing clouds.1 mph100%29.80 "HgN/A
11:30 PM
Nov 26
48 °FPartly cloudy.No wind100%29.80 "HgN/A
11:00 PM48 °FPassing clouds.1 mph100%29.80 "HgN/A
10:30 PM50 °FPassing clouds.No wind100%29.83 "HgN/A
10:00 PM50 °FPassing clouds.No wind100%29.83 "HgN/A
9:30 PM50 °FPassing clouds.1 mph100%29.83 "HgN/A
9:00 PM50 °FPassing clouds.2 mph100%29.83 "HgN/A
8:30 PM52 °FPassing clouds.1 mph94%29.83 "HgN/A
8:00 PM52 °FPartly cloudy.1 mph100%29.83 "HgN/A
Weather by CustomWeather, © 2014

See weather overviewHow to use our weather pages